This is the latest recevied weather packets stored in our database for station/object NT9G. If no packets are shown the sender has not sent any weather packets the latest 10 day(s).
| Time | Temp. | Humidity | Pressure | Rain* | Wind** | Luminosity | Snow |
|---|---|---|---|---|---|---|---|
| 1777257506 | 18.89° C | 47% | 1013.3 hPa | 0 mm | - | - | - |
| 1777257205 | 18.89° C | 47% | 1013.3 hPa | 0 mm | - | - | - |
| 1777256905 | 19.44° C | 46% | 1013.2 hPa | 0 mm | - | - | - |
| 1777256605 | 19.44° C | 45% | 1013.1 hPa | 0 mm | - | - | - |
| 1777256304 | 19.44° C | 44% | 1013 hPa | 0 mm | - | - | - |
| 1777256004 | 20° C | 43% | 1013.1 hPa | 0 mm | - | - | - |
| 1777255704 | 20° C | 42% | 1013.2 hPa | 0 mm | - | - | - |
| 1777255403 | 20° C | 43% | 1013.1 hPa | 0 mm | - | - | - |
| 1777254803 | 20.56° C | 41% | 1012.9 hPa | 0 mm | - | - | - |
| 1777254503 | 20.56° C | 42% | 1012.9 hPa | 0 mm | - | - | - |
| 1777254202 | 20.56° C | 41% | 1012.9 hPa | 0 mm | - | - | - |
| 1777253902 | 21.11° C | 39% | 1012.8 hPa | 0 mm | - | - | - |
| 1777253602 | 21.11° C | 39% | 1012.6 hPa | 0 mm | - | - | - |
| 1777253302 | 21.11° C | 40% | 1012.6 hPa | 0 mm | - | - | - |
| 1777253001 | 21.11° C | 39% | 1012.5 hPa | 0 mm | - | - | - |
| 1777252701 | 21.11° C | 39% | 1012.5 hPa | 0 mm | - | - | - |
| 1777252401 | 21.67° C | 39% | 1012.5 hPa | 0 mm | - | - | - |
| 1777252100 | 21.67° C | 39% | 1012.5 hPa | 0 mm | - | - | - |
| 1777251800 | 22.22° C | 39% | 1012.5 hPa | 0 mm | - | - | - |
| 1777251500 | 21.67° C | 39% | 1012.4 hPa | 0 mm | - | - | - |
| 1777251200 | 21.67° C | 39% | 1012.4 hPa | 0 mm | - | - | - |
| 1777250899 | 21.67° C | 39% | 1012.4 hPa | 0 mm | - | - | - |
| 1777250599 | 21.67° C | 38% | 1012.4 hPa | 0 mm | - | - | - |
| 1777250298 | 22.22° C | 38% | 1012.4 hPa | 0 mm | - | - | - |
| 1777249998 | 22.22° C | 38% | 1012.3 hPa | 0 mm | - | - | - |
* Rain since midnight (hover to see other rain measurements)
** Current wind speed in m/s (hover to see current wind gust speed)